Jacksonville, IL

4:33 AM CDT on October 15, 2019 (GMT -0500)
Jacksonville Municipal

Weather History for KIJX - August, 2019

Change the Weather History Date:

Monday, August 26, 2019

  Actual Average (KSPI) Record (KSPI)
Temperature  
Mean Temperature 73 °F 73 °F  
Max Temperature 78 °F 84 °F 103 °F (1936)
Min Temperature 68 °F 62 °F 48 °F (1885)
Degree Days  
Heating Degree Days 0 0  
Month to date heating degree days 0  
Since 1 June heating degree days 16  
Since 1 July heating degree days 1  
Cooling Degree Days 8 9  
Month to date cooling degree days 251  
Year to date cooling degree days 930  
Since 1 June cooling degree days 826  
Growing Degree Days 23 (Base 50)    
Moisture  
Dew Point 69 °F    
Average Humidity 89    
Maximum Humidity 98    
Minimum Humidity 73    
Precipitation  
Precipitation 0.70 in 0.10 in 1.88 in (1944)
Month to date precipitation 2.72  
Year to date precipitation 25.13  
Snow  
Snow 0.00 in 0.00 in 0.00 in ()
Month to date snowfall 0.0  
Since 1 June snowfall 0.0  
Since 1 July snowfall 0.0  
Snow Depth -    
Sea Level Pressure  
Sea Level Pressure 29.77 in    
Wind  
Wind Speed 8 mph (SSW)    
Max Wind Speed 15 mph    
Max Gust Speed 20 mph    
Visibility 9 miles    
Events Rain , Thunderstorm    
T = Trace of Precipitation, MM = Missing Value Source: NWS Daily Summary

Daily Weather History Graph

Daily Weather History Graph

Search for Another Location

Airport or City:

Astronomy

Aug. 26, 2019 Rise Set
Actual Time 6:23 AM CDT 7:41 PM CDT
Civil Twilight 5:55 AM CDT 8:09 PM CDT
Nautical Twilight 5:21 AM CDT 8:43 PM CDT
Astronomical Twilight 4:46 AM CDT 9:18 PM CDT
Moon 1:48 AM CDT (8/26) 5:04 PM CDT (8/26)
Length of Visible Light 14h 14m
Length of Day
13h 18m
Waning Crescent, 19% of the Moon is Illuminated
Aug 26
Waning Crescent
Aug 30
New
Sep 5
First Quarter
Sep 13
Full
Sep 21
Last Quarter

Hourly Weather History & Observations

Time (CDT) Temp. Dew Point Humidity Pressure Visibility Wind Dir Wind Speed Gust Speed Precip Events Conditions
12:15 AM 69.4 °F 68.0 °F 95% 29.83 in 10.0 mi ESE 9.2 mph - 0.01 in Rain Light Rain
12:35 AM 69.4 °F 68.2 °F 96% 29.82 in 4.0 mi ESE 9.2 mph - 0.10 in Rain Heavy Rain
12:55 AM 69.1 °F 68.2 °F 97% 29.82 in 7.0 mi SE 9.2 mph 16.1 mph 0.27 in Rain Light Rain
1:15 AM 69.3 °F 68.5 °F 98% 29.81 in 7.0 mi ESE 6.9 mph - 0.01 in Rain Rain
1:35 AM 69.4 °F 68.9 °F 98% 29.81 in 4.0 mi SE 9.2 mph - 0.09 in Rain Heavy Rain
1:55 AM 69.4 °F 68.9 °F 98% 29.79 in 2.5 mi ESE 13.8 mph - 0.24 in Rain , Thunderstorm Light Thunderstorms and Rain
2:15 AM 69.8 °F 69.1 °F 98% 29.78 in 7.0 mi SE 10.4 mph - N/A Thunderstorm Thunderstorm
2:35 AM 70.2 °F 69.4 °F 98% 29.78 in 7.0 mi SE 11.5 mph - 0.01 in Rain , Thunderstorm Thunderstorms and Rain
2:55 AM 70.5 °F 69.8 °F 98% 29.78 in 7.0 mi SSE 9.2 mph - 0.02 in Rain , Thunderstorm Light Thunderstorms and Rain
3:15 AM 70.9 °F 70.0 °F 97% 29.78 in 7.0 mi SSE 9.2 mph - N/A Rain Rain
3:35 AM 71.1 °F 70.2 °F 97% 29.77 in 7.0 mi SSE 10.4 mph - N/A   Light Drizzle
3:55 AM 71.6 °F 70.3 °F 96% 29.77 in 7.0 mi SSE 10.4 mph 17.3 mph N/A Rain , Thunderstorm Light Thunderstorms and Rain
4:15 AM 71.6 °F 70.3 °F 96% 29.77 in 7.0 mi South 9.2 mph - N/A Rain Rain
4:35 AM 71.4 °F 70.3 °F 96% 29.76 in 5.0 mi South 9.2 mph - 0.06 in Rain Heavy Rain
4:55 AM 71.1 °F 70.2 °F 97% 29.75 in 5.0 mi South 8.1 mph - 0.12 in Rain Rain
5:15 AM 70.9 °F 70.0 °F 97% 29.76 in 7.0 mi South 6.9 mph - 0.02 in Rain Light Rain
5:35 AM 70.7 °F 69.8 °F 97% 29.76 in 10.0 mi South 10.4 mph - 0.03 in Rain Light Rain
5:55 AM 69.8 °F 68.7 °F 96% 29.76 in 10.0 mi South 11.5 mph - 0.04 in Rain Light Rain
6:15 AM 69.3 °F 68.2 °F 96% 29.76 in 10.0 mi South 9.2 mph - 0.01 in Rain Light Rain
6:35 AM 69.1 °F 68.2 °F 97% 29.76 in 10.0 mi South 8.1 mph - 0.01 in Rain Light Rain
6:55 AM 68.9 °F 68.0 °F 97% 29.75 in 10.0 mi South 6.9 mph - 0.01 in   Scattered Clouds
7:15 AM 68.9 °F 68.0 °F 97% 29.75 in 10.0 mi South 6.9 mph - N/A Rain Light Rain
7:35 AM 68.9 °F 68.2 °F 98% 29.77 in 10.0 mi South 8.1 mph - N/A   Mostly Cloudy
7:55 AM 68.9 °F 68.2 °F 98% 29.76 in 10.0 mi South 5.8 mph - N/A   Overcast
8:15 AM 69.1 °F 68.2 °F 97% 29.77 in 10.0 mi SSW 6.9 mph - N/A   Overcast
8:35 AM 69.8 °F 68.9 °F 97% 29.77 in 10.0 mi South 5.8 mph - N/A   Overcast
8:55 AM 70.7 °F 69.3 °F 95% 29.76 in 10.0 mi SW 5.8 mph - N/A   Overcast
9:15 AM 71.6 °F 69.1 °F 92% 29.77 in 10.0 mi SW 9.2 mph - N/A   Overcast
9:35 AM 71.6 °F 69.1 °F 92% 29.77 in 10.0 mi WSW 11.5 mph 16.1 mph N/A   Overcast
9:55 AM 72.3 °F 67.6 °F 85% 29.77 in 10.0 mi SW 15.0 mph 19.6 mph N/A   Mostly Cloudy
10:15 AM 73.8 °F 67.1 °F 80% 29.77 in 10.0 mi SW 13.8 mph 19.6 mph N/A   Mostly Cloudy
10:35 AM 73.2 °F 67.5 °F 82% 29.77 in 10.0 mi WSW 13.8 mph 19.6 mph N/A   Overcast
10:55 AM 73.0 °F 67.6 °F 83% 29.78 in 10.0 mi West 11.5 mph - N/A   Overcast
11:15 AM 72.9 °F 67.6 °F 84% 29.77 in 10.0 mi SW 10.4 mph 16.1 mph N/A   Overcast
11:35 AM 73.4 °F 67.8 °F 83% 29.78 in 10.0 mi WSW 8.1 mph - N/A   Overcast
11:55 AM 73.8 °F 67.6 °F 81% 29.77 in 10.0 mi SW 9.2 mph - N/A   Overcast
12:15 PM 74.5 °F 68.4 °F 81% 29.78 in 10.0 mi WSW 8.1 mph - N/A   Overcast
12:35 PM 74.8 °F 68.2 °F 80% 29.77 in 10.0 mi WSW 10.4 mph - N/A   Overcast
12:55 PM 75.9 °F 69.1 °F 79% 29.78 in 10.0 mi SW 10.4 mph - N/A   Mostly Cloudy
1:15 PM 74.3 °F 68.0 °F 81% 29.78 in 10.0 mi WSW 10.4 mph - N/A   Overcast
1:35 PM 76.3 °F 68.9 °F 78% 29.77 in 10.0 mi West 5.8 mph - N/A   Overcast
1:55 PM 76.1 °F 69.1 °F 79% 29.77 in 10.0 mi West 6.9 mph - N/A   Overcast
2:15 PM 77.0 °F 68.5 °F 75% 29.77 in 10.0 mi SW 10.4 mph - N/A   Mostly Cloudy
2:35 PM 77.7 °F 68.4 °F 73% 29.76 in 10.0 mi SW 11.5 mph - N/A   Mostly Cloudy
2:55 PM 78.1 °F 68.9 °F 73% 29.75 in 10.0 mi SSW 9.2 mph - N/A   Scattered Clouds
3:15 PM 77.7 °F 68.9 °F 74% 29.72 in 10.0 mi South 10.4 mph - N/A   Scattered Clouds
3:35 PM 78.4 °F 69.3 °F 73% 29.69 in 10.0 mi South 11.5 mph - N/A   Scattered Clouds
3:55 PM 78.1 °F 68.9 °F 73% 29.69 in 10.0 mi SSW 11.5 mph - N/A   Scattered Clouds
4:15 PM 77.5 °F 68.7 °F 74% 29.69 in 10.0 mi South 9.2 mph - N/A   Scattered Clouds
4:35 PM 77.4 °F 68.9 °F 75% 29.69 in 10.0 mi South 8.1 mph - N/A   Scattered Clouds
4:55 PM 77.4 °F 68.5 °F 74% 29.73 in 10.0 mi SW 5.8 mph - N/A   Clear
5:15 PM 77.0 °F 69.1 °F 76% 29.74 in 10.0 mi West 3.5 mph - N/A   Clear
5:35 PM 76.6 °F 69.6 °F 79% 29.75 in 10.0 mi West 3.5 mph - N/A   Clear
5:55 PM 76.3 °F 70.0 °F 81% 29.75 in 10.0 mi West 4.6 mph - N/A   Mostly Cloudy
6:15 PM 75.6 °F 69.8 °F 82% 29.75 in 10.0 mi WNW 6.9 mph - N/A   Overcast
6:35 PM 75.2 °F 69.4 °F 82% 29.76 in 10.0 mi WNW 5.8 mph - N/A   Overcast
6:55 PM 74.7 °F 69.3 °F 83% 29.76 in 10.0 mi WNW 5.8 mph - N/A   Mostly Cloudy
7:15 PM 73.9 °F 69.1 °F 85% 29.76 in 10.0 mi West 3.5 mph - N/A   Mostly Cloudy
7:35 PM 72.7 °F 69.6 °F 90% 29.77 in 10.0 mi West 3.5 mph - N/A   Mostly Cloudy
7:55 PM 72.1 °F 69.4 °F 91% 29.77 in 10.0 mi West 4.6 mph - N/A   Overcast
8:15 PM 71.6 °F 69.6 °F 93% 29.78 in 10.0 mi West 3.5 mph - N/A   Overcast
8:35 PM 71.1 °F 69.3 °F 94% 29.79 in 10.0 mi Calm Calm - N/A   Overcast
8:55 PM 70.9 °F 69.3 °F 95% 29.80 in 10.0 mi West 4.6 mph - N/A   Overcast
9:15 PM 71.8 °F 68.9 °F 91% 29.79 in 10.0 mi WSW 3.5 mph - N/A   Overcast
9:35 PM 71.1 °F 68.5 °F 92% 29.79 in 10.0 mi West 4.6 mph - N/A   Scattered Clouds
9:55 PM 69.8 °F 68.2 °F 95% 29.78 in 10.0 mi Calm Calm - N/A   Clear
10:15 PM 69.3 °F 68.2 °F 96% 29.79 in 10.0 mi Calm Calm - N/A   Mostly Cloudy
10:35 PM 70.7 °F 68.9 °F 94% 29.80 in 10.0 mi WSW 4.6 mph - N/A   Overcast
10:55 PM 70.2 °F 68.9 °F 96% 29.80 in 10.0 mi WSW 3.5 mph - N/A   Mostly Cloudy
11:15 PM 70.2 °F 68.9 °F 96% 29.81 in 10.0 mi SW 3.5 mph - N/A   Mostly Cloudy
11:35 PM 69.8 °F 68.7 °F 96% 29.81 in 10.0 mi WSW 3.5 mph - N/A   Mostly Cloudy
11:55 PM 69.8 °F 68.5 °F 96% 29.80 in 10.0 mi Calm Calm - N/A   Mostly Cloudy